Theta_e
350 349 345 338 334 333 330 330 326 321 317 322 331 335 337 338 339 340 339 337 335 333 332 332 334 337 340 342 341 342 342 343 343 344 344 344 345 345 345 345 344 344 344 344 344 343 342 341 341 340 337 335 333 333 334 335 335 336 337 337 336 336 334 331 331 332 332 332 332 332 331 332 332 333 333 333 332 331 333 333 333 334 333 333 332
351 348 345 339 334 333 330 329 325 320 317 322 328 331 334 336 337 337 338 335 334 334 335 337 340 342 341 341 341 342 342 343 343 344 344 344 345 344 345 344 344 343 344 343 343 343 342 341 341 338 333 330 328 327 326 327 329 331 333 335 335 334 334 331 331 332 331 332 333 333 333 332 332 332 333 333 332 331 332 333 333 334 334 332 332
350 347 346 340 333 331 329 328 324 319 317 322 326 328 331 335 336 336 337 336 337 337 338 339 341 341 341 341 341 342 342 343 344 344 344 344 344 344 345 344 344 344 344 343 343 343 342 341 340 337 333 332 331 330 330 327 325 329 331 332 333 333 333 330 330 331 331 331 331 333 333 332 332 332 332 332 331 331 331 332 332 333 332 330 331
349 347 345 340 334 331 328 327 323 319 318 321 325 325 326 329 331 332 333 334 337 338 339 340 340 341 341 342 342 343 343 343 343 344 344 344 344 344 344 344 344 344 344 343 342 342 342 340 339 338 335 335 334 334 334 331 328 330 331 331 333 334 332 328 329 331 331 332 332 334 334 334 334 333 332 332 332 331 331 331 331 332 332 331 331
348 346 345 343 339 334 328 327 323 320 320 323 327 329 328 327 326 328 328 329 334 337 339 339 341 342 342 342 342 343 343 343 343 344 344 344 344 344 344 344 344 343 343 343 342 342 341 339 339 338 337 337 337 337 336 334 331 330 331 332 333 333 331 328 329 332 332 333 334 335 335 335 335 332 331 332 333 333 332 332 332 333 333 333 332
348 346 345 344 343 336 328 327 323 322 324 327 332 336 337 335 334 333 331 331 334 337 340 341 342 342 343 343 343 343 343 343 344 344 344 343 344 343 343 344 343 343 343 342 342 342 340 339 338 338 337 338 338 338 337 336 333 330 329 331 333 331 330 331 332 333 334 334 334 336 335 335 334 333 333 331 332 333 333 332 332 332 333 333 332
347 346 345 344 344 337 329 327 325 323 326 331 335 340 341 341 341 340 339 339 339 340 341 342 342 343 343 343 343 343 343 343 343 344 343 343 343 343 343 343 343 342 342 342 341 341 340 339 339 338 338 338 338 336 335 334 333 332 329 329 331 330 330 332 333 333 334 335 335 336 335 335 334 334 334 332 331 331 331 330 330 330 331 330 331
346 346 345 344 344 337 329 327 325 322 327 334 338 342 343 343 343 342 343 342 342 342 342 343 343 343 343 343 343 343 343 344 344 343 343 343 343 342 342 342 342 341 341 340 340 340 340 339 339 338 336 335 333 331 331 331 331 332 331 329 328 328 331 331 330 332 334 335 335 335 335 335 335 335 333 332 332 330 330 330 331 330 330 330 331
346 345 344 344 343 335 327 325 324 323 327 335 339 342 342 343 343 343 343 342 342 343 342 343 343 343 343 343 343 343 343 343 343 343 342 342 341 341 340 339 339 340 340 339 340 340 339 339 337 334 332 330 329 329 330 331 331 331 331 330 327 327 329 329 330 333 334 334 335 335 335 335 335 333 330 330 331 331 332 333 333 333 332 331 332
345 345 344 345 342 332 326 325 326 327 331 335 338 340 342 342 343 343 343 342 343 342 343 343 343 343 343 344 343 343 342 342 342 341 340 340 338 337 336 336 335 336 339 339 339 338 338 337 335 330 329 329 328 329 331 331 331 331 331 331 328 325 325 327 332 334 334 334 333 333 334 334 334 332 330 330 331 331 333 334 334 333 332 332 333
345 345 345 345 340 331 327 328 329 331 334 336 338 339 341 342 342 343 342 342 343 342 343 343 343 343 343 343 342 341 341 340 339 339 338 334 330 326 326 329 331 334 335 336 337 337 337 335 333 331 329 328 327 329 331 330 330 331 331 330 329 325 325 330 334 334 333 333 331 330 331 334 334 333 331 332 332 332 332 332 332 331 332 333 332
344 345 345 344 340 332 329 330 331 332 335 337 337 338 341 342 342 342 342 343 343 343 343 343 343 343 343 342 340 339 338 337 336 336 335 329 324 322 321 321 326 331 331 331 333 334 334 333 331 330 328 326 327 331 331 330 329 330 330 330 329 326 329 333 334 334 333 332 331 331 333 334 334 332 332 331 332 331 331 331 331 331 331 331 331
345 346 345 343 340 334 332 333 333 334 336 337 337 338 340 342 342 342 342 343 343 343 343 343 343 342 341 340 338 337 336 335 334 334 331 327 323 323 323 319 320 325 328 327 328 328 328 329 328 326 325 325 328 331 332 331 329 330 331 330 329 327 331 335 335 334 333 331 332 333 333 335 332 331 332 331 330 330 330 330 330 330 330 330 330
345 346 344 342 341 337 334 333 333 335 337 336 337 339 340 341 342 342 342 342 343 343 342 342 342 341 340 339 338 337 336 335 333 332 329 325 324 327 329 325 320 319 323 324 324 322 321 322 323 323 324 327 330 332 332 332 331 330 331 331 330 330 332 334 335 334 333 332 333 333 334 335 331 329 332 331 330 330 329 329 329 329 328 328 328
345 346 344 343 342 340 336 334 334 336 337 336 337 338 339 341 342 342 342 342 342 342 342 342 341 340 340 339 338 337 335 333 332 331 328 327 327 331 333 330 326 320 317 318 320 319 316 317 320 323 326 330 331 332 333 333 332 331 332 332 331 332 335 336 334 334 334 333 334 333 335 334 328 329 332 331 331 329 329 330 329 330 328 327 327
345 345 344 343 343 341 339 337 337 337 336 336 336 336 338 339 341 341 341 341 341 341 340 340 340 340 339 338 337 336 334 332 332 331 328 328 330 333 334 332 331 325 317 315 316 318 316 318 322 325 328 331 331 332 333 333 333 332 332 332 332 332 335 337 335 336 335 334 334 334 335 330 326 330 332 331 331 330 330 330 329 329 328 327 327
344 344 344 343 343 342 341 339 337 337 336 335 334 334 335 338 339 340 340 340 340 340 340 340 340 339 338 338 336 334 334 333 332 331 329 330 332 334 335 334 331 327 321 317 316 317 319 322 326 328 329 331 332 332 333 333 334 333 332 332 333 332 334 336 336 336 334 333 333 332 335 329 326 331 331 331 331 330 331 330 329 328 327 326 327
344 344 344 343 343 343 342 340 338 338 337 335 335 333 334 336 338 339 339 340 340 340 339 339 338 338 337 337 337 336 336 336 334 332 330 330 333 334 334 334 333 329 324 319 317 318 321 324 327 329 330 331 332 332 333 333 333 334 333 332 333 332 334 336 336 336 334 334 332 333 335 327 327 331 331 331 330 330 330 328 328 327 327 327 327
343 344 343 343 343 343 343 341 340 340 339 338 337 333 333 335 336 338 340 340 340 339 339 338 337 337 336 336 337 337 337 337 337 335 330 329 331 333 332 333 333 332 328 321 318 319 322 324 327 329 330 331 332 332 332 333 333 334 333 333 333 333 334 336 336 335 335 335 333 335 330 323 328 332 331 331 330 329 328 328 329 327 327 327 326
343 343 343 343 343 342 342 341 341 340 340 339 338 335 333 333 335 337 339 339 339 339 337 336 335 335 335 335 335 336 336 335 337 338 333 330 331 331 329 329 330 332 331 324 319 319 321 324 326 328 330 330 332 332 332 332 333 333 334 333 333 335 336 336 336 335 336 334 334 335 326 322 329 331 331 331 329 328 329 329 329 327 327 327 326
342 342 342 342 341 341 340 340 339 339 339 338 337 336 334 333 334 335 337 339 339 336 335 334 335 335 334 334 334 335 335 335 335 336 335 334 332 330 329 328 328 329 330 328 323 318 319 323 324 326 329 331 332 332 333 332 332 333 334 333 334 337 337 335 335 335 335 334 335 334 324 322 327 329 331 330 328 328 329 329 328 327 327 327 326
342 341 341 341 340 339 339 338 338 338 337 337 337 336 335 335 335 335 337 338 337 336 335 337 337 336 335 334 335 335 336 336 335 334 335 336 334 331 331 329 328 328 328 328 326 321 318 319 322 324 327 330 332 334 334 333 332 332 332 335 337 338 336 336 336 334 334 334 335 333 324 322 324 327 331 330 329 329 329 329 328 327 326 326 324
341 341 340 340 339 337 337 336 336 336 335 336 337 336 335 336 335 336 337 337 336 337 338 338 337 336 335 335 337 337 338 338 335 333 333 333 331 329 330 328 328 328 327 327 327 326 323 318 318 321 324 328 332 335 335 334 333 333 334 336 338 337 337 337 336 335 335 334 334 333 326 323 322 326 331 331 330 330 329 328 328 327 326 326 324
340 340 339 338 337 336 336 335 336 335 334 335 336 335 335 335 336 336 337 337 336 337 337 336 336 336 336 338 339 339 339 339 337 337 337 336 333 331 331 330 331 329 328 331 331 329 329 326 320 318 323 329 333 335 333 334 334 335 336 336 337 336 337 336 336 335 334 334 334 333 329 325 322 325 330 331 330 330 329 328 328 327 327 326 325
338 337 337 337 336 336 335 335 336 335 335 335 335 335 335 336 338 338 337 337 336 336 336 335 336 336 338 340 340 339 339 339 339 340 340 339 338 338 338 336 337 334 330 334 335 332 334 334 330 326 329 331 333 335 334 334 333 335 336 336 336 336 336 335 336 335 334 335 334 333 330 328 323 323 329 331 331 330 329 328 328 327 327 326 324
336 335 335 335 336 336 336 336 335 336 336 335 335 335 335 336 339 339 337 337 336 336 336 336 337 338 338 339 339 339 339 339 339 339 339 339 340 340 340 339 340 338 336 337 335 334 334 334 335 334 333 331 332 334 335 335 334 334 335 335 336 336 336 335 335 335 335 335 335 333 331 331 327 322 325 330 332 330 330 329 328 328 327 327 324
334 334 334 335 336 336 336 336 336 336 336 336 335 335 335 336 337 337 337 337 337 336 336 337 337 337 337 338 339 339 339 339 339 339 339 339 340 340 340 340 340 340 340 339 337 335 334 333 334 334 334 333 333 334 335 336 336 335 334 335 335 336 336 335 335 335 335 335 336 333 332 331 330 325 322 327 332 331 330 329 328 328 327 327 324
333 334 334 335 336 336 336 336 336 336 336 336 336 335 335 336 337 337 336 336 336 336 336 336 336 337 337 339 340 339 339 339 338 339 339 339 340 340 339 340 340 340 340 340 340 338 336 334 334 333 333 333 333 333 334 335 336 335 335 335 335 335 336 335 335 335 334 334 335 334 333 332 330 329 323 324 331 332 331 330 329 328 327 327 325
333 334 335 335 336 336 336 336 336 336 336 336 336 336 336 337 336 337 337 337 337 337 337 337 338 338 338 339 340 340 339 339 338 338 338 339 340 339 339 339 339 340 340 339 340 340 339 338 336 334 332 332 333 334 334 334 334 334 334 335 334 335 335 335 335 335 334 334 335 335 334 333 331 330 326 323 327 331 332 331 330 328 327 327 325
333 335 336 336 337 337 337 337 336 336 336 336 336 337 337 337 337 338 338 339 339 339 339 339 339 339 339 340 340 340 340 339 339 338 338 338 338 338 338 338 338 339 339 339 339 339 340 339 339 338 336 334 333 333 334 333 333 333 333 334 334 334 335 335 335 334 335 335 335 335 334 333 332 331 330 326 325 328 332 331 330 329 328 327 325
334 336 337 337 338 337 338 337 337 337 336 337 337 338 338 338 339 340 340 340 340 340 340 340 339 339 339 339 339 339 339 339 338 338 337 337 337 338 338 338 338 338 338 338 338 338 338 339 339 339 339 338 336 335 334 333 333 333 333 333 333 334 334 334 334 334 334 334 335 336 335 334 332 331 331 329 325 326 331 332 331 330 328 327 326
335 336 338 338 339 339 339 339 338 338 338 338 339 339 340 340 340 341 341 340 339 340 340 339 339 339 338 338 338 338 338 338 337 337 337 338 338 338 338 338 337 337 337 337 336 337 337 337 338 338 339 339 338 337 336 335 334 333 333 333 334 334 334 334 335 335 334 334 335 336 336 336 334 332 331 330 328 325 328 331 331 331 329 327 327
336 337 339 339 340 341 340 341 340 340 339 339 340 340 340 341 341 341 340 339 339 339 339 339 339 338 337 337 337 337 337 337 337 337 337 338 338 338 337 337 337 337 337 337 336 337 336 337 337 337 337 338 338 339 338 338 337 336 336 335 335 336 336 335 335 336 335 335 335 335 336 336 335 334 333 331 330 327 326 329 331 331 330 328 327
337 338 340 341 341 341 341 341 340 340 339 340 341 341 340 341 341 341 340 339 339 339 339 339 338 337 337 337 337 337 337 337 337 337 338 338 337 337 337 337 337 337 337 337 337 337 336 337 336 336 336 336 337 338 338 338 338 337 337 337 337 337 337 336 336 336 336 336 336 336 336 336 335 336 335 334 332 329 326 326 329 331 330 329 328
339 340 341 341 340 341 341 340 339 339 340 340 341 341 341 340 340 340 339 339 338 338 339 339 338 338 338 338 337 337 337 337 337 338 338 338 337 337 337 337 337 337 337 337 337 337 337 337 337 336 335 335 335 336 337 337 337 337 337 337 337 337 337 337 336 336 336 336 336 337 337 336 336 335 336 336 335 332 329 326 327 329 330 329 329
340 340 340 340 340 340 340 340 339 340 341 341 341 340 340 340 339 339 339 339 338 338 339 339 338 338 337 337 337 337 337 337 337 337 338 337 337 337 337 337 337 337 337 337 337 337 337 337 337 336 336 335 335 336 336 337 336 336 337 337 337 336 337 337 337 337 336 337 337 337 337 337 337 336 335 336 336 335 333 329 326 327 328 328 328
340 340 339 339 339 339 340 340 340 341 340 340 341 340 340 340 339 338 338 338 338 338 338 338 338 337 337 336 336 337 336 337 337 336 337 337 337 337 337 337 337 337 337 337 337 337 337 337 336 336 336 336 336 337 337 337 336 336 336 336 336 336 336 336 336 337 337 337 337 337 337 337 337 337 336 336 335 335 336 333 329 326 327 328 327
338 337 338 339 339 340 340 340 340 340 339 339 340 339 339 339 338 338 338 338 337 337 337 337 337 336 336 336 336 336 336 336 336 336 337 337 337 337 337 337 337 337 337 337 337 337 337 337 337 336 336 336 337 337 337 336 336 336 336 336 336 336 336 336 336 337 337 337 337 337 337 337 337 337 337 336 336 335 336 335 332 328 327 327 327
336 336 338 340 340 340 339 339 339 339 339 339 339 339 339 338 338 338 337 337 336 336 336 336 336 336 336 336 336 336 335 336 336 336 337 336 336 336 336 336 336 336 336 336 337 337 337 337 336 336 337 337 337 337 337 337 336 336 335 335 336 336 336 336 337 337 336 337 337 337 337 337 336 337 337 336 336 336 336 336 334 331 329 328 328
337 337 339 339 339 339 338 339 339 339 339 339 339 339 339 338 337 337 336 336 336 336 336 335 335 335 335 335 335 335 335 335 335 335 335 335 335 335 335 335 335 336 335 336 336 335 335 336 335 335 336 336 336 336 337 337 337 337 336 335 335 336 336 336 336 336 336 336 336 336 336 336 336 336 336 336 336 336 335 335 335 333 333 332 330
337 337 338 338 338 338 338 339 339 339 339 339 339 339 339 338 337 336 336 336 336 335 335 334 334 335 335 335 335 335 334 334 334 335 334 334 335 334 335 335 335 335 336 336 335 335 335 334 334 335 334 335 335 336 336 336 337 337 336 335 335 336 336 336 336 336 336 335 335 335 335 335 335 335 335 335 335 335 335 335 335 334 334 334 332
337 337 337 337 337 337 337 337 338 338 338 338 338 337 337 337 336 336 336 335 335 335 334 334 334 334 334 334 334 334 333 333 333 333 334 334 334 334 334 334 335 335 335 335 335 335 334 334 334 334 334 334 334 334 336 336 335 335 335 334 334 334 335 337 337 336 336 334 334 334 334 334 334 334 334 334 334 334 334 334 335 335 334 334 333
335 335 336 336 336 336 336 336 336 336 336 336 336 337 337 337 336 336 335 334 334 334 333 333 332 332 331 331 331 332 332 332 332 332 332 333 333 333 333 333 333 333 334 334 334 334 334 334 333 333 333 333 333 334 335 335 334 334 334 333 333 331 332 335 336 335 334 334 334 334 333 333 333 333 333 333 333 333 333 333 334 334 334 333 333
332 333 334 335 334 335 335 335 335 335 335 335 336 337 337 336 335 335 334 334 333 332 332 331 330 330 330 330 329 330 330 330 330 330 330 330 330 331 331 331 331 331 331 331 330 331 331 332 332 332 332 332 332 333 333 334 333 333 333 332 331 331 330 330 332 332 332 333 334 334 333 333 333 332 332 333 332 332 332 333 333 333 333 333 333
331 331 332 332 332 332 333 333 334 334 334 334 335 335 335 335 334 333 333 333 332 332 331 330 330 329 329 328 326 326 327 327 327 327 327 327 327 327 327 328 327 327 327 326 326 326 327 328 328 329 330 331 331 332 332 332 332 332 332 331 331 330 329 330 331 331 331 332 332 332 332 333 332 332 332 332 332 332 332 332 332 333 333 333 333
328 328 329 329 329 330 330 331 332 333 332 333 333 334 334 334 333 333 333 333 332 331 331 329 328 327 327 326 325 323 323 324 324 323 323 323 323 323 324 324 324 323 323 323 324 323 324 324 324 325 327 328 329 330 331 331 331 331 331 332 332 331 331 332 331 330 330 330 330 331 331 331 332 332 332 331 331 331 332 332 332 333 333 333 333
325 325 326 327 328 329 328 328 329 330 330 330 331 331 332 332 332 332 332 332 331 330 328 327 326 325 325 324 324 321 321 321 321 320 320 321 321 320 321 321 321 320 320 321 321 321 322 323 323 323 324 326 327 328 329 329 330 330 330 331 331 331 332 331 330 329 329 329 329 330 330 330 330 331 331 331 331 331 331 332 333 333 333 333 333
323 323 323 324 325 325 325 326 327 327 327 327 328 329 329 329 329 329 329 329 329 327 325 324 324 323 323 323 322 320 319 318 318 318 318 318 319 318 318 318 318 318 318 319 318 319 320 321 321 322 323 324 325 326 327 328 329 329 329 329 330 330 330 330 330 329 329 329 329 329 328 328 329 330 330 330 330 330 331 331 333 334 334 333 333
321 321 321 321 322 323 323 324 325 325 325 325 325 326 326 326 327 327 326 326 325 324 323 322 322 322 322 322 322 320 318 317 316 316 316 316 316 316 316 316 316 316 316 317 317 317 318 318 319 319 320 321 321 323 325 325 326 327 328 328 329 329 329 329 329 329 329 328 327 327 328 328 328 329 329 330 330 330 330 331 331 332 333 333 333
320 320 321 321 321 323 323 323 323 323 323 322 323 323 323 324 324 324 324 323 323 322 321 321 321 321 321 321 320 318 317 316 315 314 314 314 313 313 313 313 313 313 313 313 314 315 315 316 317 318 319 319 319 320 321 322 323 324 324 326 327 328 329 329 328 328 328 328 327 327 329 328 328 328 328 328 329 330 330 331 331 332 332 333 333
319 320 321 321 321 322 322 322 321 321 321 321 321 321 321 321 321 322 321 321 321 321 320 320 320 320 320 319 319 317 316 315 313 312 311 311 310 310 310 310 310 310 311 311 312 312 313 314 315 315 316 316 316 317 317 318 319 320 321 322 324 326 327 328 328 328 328 328 327 327 328 328 327 328 328 328 328 329 330 331 331 332 332 333 333
Wind_Speed
18 19 20 18 18 16 13 12 10 10 13 16 15 14 14 14 14 14 14 15 15 15 15 16 17 18 17 16 16 15 14 13 13 13 12 12 12 11 11 12 12 13 13 14 15 16 17 17 16 15 15 14 13 13 13 12 13 14 14 15 14 13 14 15 16 15 15 14 14 14 14 14 14 14 13 13 12 14 13 10 10 10 11 12 13
20 20 20 18 18 16 14 13 10 11 13 17 16 15 14 14 14 13 14 14 15 14 16 17 17 16 16 16 15 14 13 13 12 13 12 12 11 11 11 12 12 13 13 15 16 16 17 17 16 15 14 15 15 15 14 13 11 12 13 14 13 12 13 15 16 15 15 15 15 16 16 15 15 14 14 13 12 12 12 11 11 11 11 12 13
21 20 19 19 18 16 15 13 11 11 14 17 17 16 15 14 14 13 13 14 15 15 17 17 16 16 15 15 14 13 13 13 13 13 12 12 11 11 11 11 12 13 13 14 15 15 16 16 15 14 14 15 15 16 16 16 14 13 12 13 13 13 12 14 16 15 15 14 15 16 16 15 15 14 13 13 13 12 12 12 11 11 10 12 12
21 21 20 18 18 17 15 14 12 12 15 18 17 16 15 15 14 14 14 14 16 16 17 17 17 15 14 15 14 13 13 13 13 13 12 12 12 11 11 11 12 13 14 14 15 15 15 15 14 13 13 14 14 15 16 17 17 15 13 12 13 13 12 14 17 16 15 14 14 14 14 13 14 13 13 13 12 12 11 11 11 12 12 11 10
22 21 20 18 17 17 16 14 13 13 16 19 18 17 16 16 15 15 14 15 16 17 17 16 15 14 14 14 14 13 13 13 13 13 12 12 12 12 12 11 12 13 13 14 15 15 14 14 13 13 13 13 14 14 15 15 15 15 13 12 12 12 12 15 19 18 17 16 13 12 11 12 12 12 12 11 10 11 10 10 11 12 11 10 9
21 21 20 19 17 16 16 15 15 14 16 18 19 18 17 16 16 16 15 16 15 15 15 14 14 14 14 14 14 13 13 13 13 13 12 12 12 12 12 12 12 13 13 13 14 14 13 13 13 12 12 12 12 12 12 12 12 12 12 12 11 11 13 17 19 17 16 15 12 9 9 10 11 11 11 9 9 9 10 10 10 10 9 9 10
20 21 19 18 17 16 16 16 16 15 15 18 19 18 17 16 15 15 15 15 14 14 14 14 14 14 14 14 14 13 13 13 13 14 13 13 13 13 13 13 13 13 13 12 13 13 12 12 12 11 11 11 10 9 10 9 9 10 10 11 11 11 14 16 15 13 13 11 8 8 9 9 11 10 9 9 8 8 9 9 9 8 8 8 8
19 19 18 17 16 16 18 17 16 15 16 19 19 18 16 15 15 14 14 14 14 14 14 14 14 14 14 14 14 14 14 13 13 14 14 14 13 13 13 13 13 12 12 12 12 11 11 11 11 11 10 10 9 9 10 8 7 7 9 9 9 10 13 13 13 13 11 7 7 8 8 9 10 10 9 9 8 8 8 8 8 9 8 8 7
18 18 18 17 15 17 19 18 16 15 16 19 18 17 16 16 15 15 14 14 14 14 14 14 14 14 14 14 14 14 14 13 14 14 13 12 11 11 10 10 11 11 11 11 10 10 10 10 10 10 9 9 9 10 10 8 7 6 7 8 8 8 9 10 10 11 9 7 7 7 8 9 9 9 8 8 8 6 6 6 8 8 7 7 6
18 18 18 16 16 18 19 17 16 15 16 18 18 17 16 15 15 14 14 14 14 14 14 14 14 14 15 14 14 14 14 13 13 12 12 10 9 8 7 7 8 9 9 9 9 9 9 9 9 8 8 8 9 9 9 8 7 6 6 7 7 7 7 9 10 8 6 7 7 7 8 10 8 8 7 8 7 5 5 5 4 4 5 6 6
18 18 18 17 17 18 18 17 16 15 16 17 19 18 16 15 14 14 14 14 14 14 14 14 14 14 14 14 14 14 13 12 12 11 10 9 9 8 7 6 6 6 7 7 7 7 8 8 8 6 6 7 8 9 9 9 8 8 7 7 6 7 8 10 9 5 5 6 7 7 9 10 8 8 7 7 7 6 5 4 3 3 5 5 5
17 18 18 18 16 17 18 17 16 15 16 17 19 18 16 15 14 14 14 13 13 13 14 14 14 14 14 13 13 13 12 12 11 10 9 9 9 8 7 6 5 5 5 6 7 7 7 8 6 5 5 6 7 8 9 9 9 10 9 7 7 7 9 10 6 3 5 6 6 7 6 7 8 8 7 6 5 5 5 4 4 4 4 4 4
18 18 19 18 15 16 17 16 16 15 16 17 18 18 17 15 14 14 13 13 13 13 13 13 14 13 13 13 13 12 11 11 10 9 9 9 9 8 8 8 6 4 5 5 5 6 6 7 6 5 6 6 7 8 9 9 9 10 9 8 7 7 10 10 5 3 5 5 6 6 5 6 7 7 6 5 4 4 3 3 3 2 3 3 3
19 18 19 18 16 16 16 16 15 15 16 17 18 18 16 15 14 13 13 12 12 12 12 13 13 12 12 12 12 11 10 10 9 9 9 9 9 9 9 9 8 6 4 4 5 5 6 7 7 7 6 6 7 7 9 9 8 8 9 9 8 8 10 9 4 4 4 5 5 5 6 6 5 5 5 4 3 2 2 2 2 2 2 3 4
19 19 19 19 17 15 15 15 16 17 17 17 17 17 16 14 13 13 12 12 12 12 12 12 12 12 11 11 10 10 9 9 9 9 9 9 9 10 9 9 9 7 6 4 5 6 7 8 10 9 8 7 6 7 8 8 8 7 8 8 8 9 9 6 3 4 4 4 4 4 6 4 4 5 4 3 3 2 2 1 1 2 3 4 4
18 18 19 19 18 16 15 15 16 17 17 17 17 16 15 14 13 13 12 12 12 12 12 11 11 11 11 10 10 9 9 8 8 9 10 10 10 10 9 9 8 7 7 5 5 7 9 11 12 11 8 7 6 7 7 7 7 6 6 7 9 9 9 7 3 3 3 3 3 3 5 2 4 7 4 3 2 2 2 1 1 1 3 3 3
16 17 18 19 18 17 16 14 14 15 15 15 15 14 14 13 13 12 11 11 12 12 11 11 11 10 10 10 9 8 8 8 8 9 10 10 10 10 9 8 7 6 6 6 6 8 11 13 12 10 9 7 6 6 6 6 5 6 6 5 7 8 10 8 3 3 3 3 3 2 4 2 5 8 5 3 3 2 2 1 1 1 1 1 1
15 16 17 18 17 16 16 14 14 14 13 13 13 13 13 13 13 12 11 11 12 12 11 11 10 9 9 9 8 8 7 7 7 8 9 9 10 10 8 8 7 6 6 6 7 8 10 11 11 9 8 6 5 5 5 5 5 5 5 5 5 6 9 8 3 3 3 3 2 3 3 2 4 7 4 4 4 3 2 2 3 1 1 1 1
15 16 16 16 16 15 15 14 14 14 13 13 12 12 13 13 12 12 10 10 12 12 11 11 9 9 8 8 7 7 6 6 7 7 7 8 9 8 8 8 7 6 6 6 7 8 8 9 9 8 7 6 5 5 5 5 5 5 5 4 3 4 7 5 2 2 2 2 2 3 1 3 5 6 4 4 4 4 3 4 3 1 1 2 2
15 15 14 14 15 15 15 13 13 13 13 13 12 11 11 12 12 11 10 10 12 11 10 8 7 8 7 6 6 5 4 5 6 5 5 6 7 6 7 7 7 7 6 6 6 7 7 7 7 7 6 5 5 5 6 6 6 5 4 3 2 3 4 2 1 1 2 2 2 2 2 2 7 6 4 4 4 4 4 4 3 2 2 2 2
13 13 13 13 14 13 13 12 12 12 12 13 13 12 11 11 11 11 10 10 10 10 8 6 6 6 5 4 5 4 4 4 4 4 4 4 4 5 5 5 6 7 7 7 6 5 6 6 6 6 6 5 5 5 5 5 6 5 4 3 3 2 0 0 0 1 1 2 2 0 4 1 5 5 5 5 4 3 4 4 3 4 3 3 2
12 12 11 12 13 12 12 12 12 12 12 12 12 12 12 11 10 10 10 9 9 9 8 7 6 5 4 4 4 5 5 5 5 4 5 3 2 3 3 3 5 5 6 7 6 4 3 5 5 5 5 5 4 3 2 3 4 5 4 4 3 2 2 1 1 2 1 1 1 3 6 1 3 5 5 5 5 4 4 4 4 4 3 4 4
13 12 12 12 12 12 12 12 13 13 12 12 12 12 12 11 11 10 10 10 8 7 7 6 6 5 4 5 5 5 5 5 5 5 6 5 3 3 3 3 3 3 4 5 6 5 4 2 3 5 5 4 3 2 2 2 2 3 3 2 2 4 2 2 2 2 2 1 1 6 6 2 3 4 5 5 5 5 5 5 4 5 5 6 5
13 13 13 11 11 12 12 12 12 12 12 12 12 12 11 11 10 10 11 10 8 6 6 6 6 6 5 5 5 4 4 4 4 4 5 5 3 4 4 4 3 2 2 2 3 4 5 4 1 3 4 4 4 4 3 2 2 2 3 2 3 3 3 3 3 3 3 1 3 7 6 3 3 4 5 6 7 5 6 6 5 6 6 7 6
13 13 12 12 11 12 12 12 12 12 11 11 11 11 11 10 10 10 11 10 8 7 7 7 7 6 5 4 3 3 3 3 3 3 3 3 3 3 4 3 2 2 2 1 1 2 2 2 2 1 4 5 5 5 4 4 3 3 4 4 4 4 4 4 4 4 4 3 5 7 5 4 4 5 6 7 8 6 7 8 7 8 7 8 8
12 12 12 12 12 12 12 12 12 12 11 11 11 12 11 10 9 10 10 9 8 8 7 7 6 5 4 3 2 2 2 2 2 2 2 2 2 2 2 2 2 2 2 1 0 1 1 1 0 0 2 4 5 6 6 6 5 5 5 5 5 5 5 5 5 5 5 5 7 8 6 5 5 6 6 8 9 8 8 9 8 8 9 12 9
13 12 12 12 12 12 12 12 12 12 11 11 12 12 11 9 9 9 9 9 8 7 7 6 5 4 3 2 1 1 1 1 1 1 1 2 1 1 1 1 1 1 1 1 1 1 1 1 2 2 2 3 4 5 6 7 7 7 7 6 6 6 5 5 6 6 7 6 8 10 8 7 8 7 7 9 10 10 9 9 9 8 11 15 11
13 13 12 12 12 12 12 12 12 12 12 12 11 11 10 10 9 8 8 9 8 7 6 5 4 3 2 2 1 0 1 1 1 1 0 1 1 1 1 1 1 1 1 1 1 1 1 2 3 3 4 4 4 5 6 7 8 8 8 8 8 7 6 7 7 7 8 8 9 11 11 9 9 9 9 10 11 11 11 10 10 9 12 14 11
14 14 13 13 13 13 13 12 13 13 12 12 12 11 10 10 9 9 8 8 7 7 6 5 4 3 2 1 1 0 0 1 1 1 1 1 1 1 2 2 1 2 2 2 2 2 2 2 3 4 5 5 5 5 6 7 8 9 9 9 9 9 9 9 9 9 9 9 9 11 13 12 11 11 11 11 12 12 12 11 11 11 12 12 10
15 14 13 13 13 13 13 13 13 13 12 12 12 11 10 10 9 9 8 7 6 5 4 3 3 2 1 1 0 0 0 0 1 1 2 1 1 1 2 2 2 2 2 3 2 3 3 3 3 4 5 5 6 6 7 8 9 9 10 10 10 10 10 10 10 10 10 11 11 11 14 14 12 13 13 13 14 13 13 12 12 12 12 12 12
15 15 14 14 14 14 14 14 13 13 12 12 11 11 11 10 9 8 7 6 5 4 3 3 2 2 1 1 1 1 0 0 1 1 1 1 2 2 2 2 2 3 3 3 3 3 4 4 4 4 5 6 6 6 8 9 10 10 10 11 11 10 10 11 11 11 12 12 12 12 13 15 15 15 15 15 16 15 14 14 13 13 13 13 13
16 15 14 14 14 14 14 13 13 13 12 12 11 11 10 10 9 7 6 6 5 4 3 3 2 2 1 2 1 1 0 0 1 1 1 1 2 2 2 2 2 3 3 3 3 3 4 4 5 5 6 6 7 7 8 9 10 11 11 11 11 11 12 12 12 12 13 13 13 12 12 14 16 16 17 17 18 17 16 16 15 14 14 14 14
15 16 15 15 14 14 13 12 12 12 11 10 10 10 10 9 8 7 6 6 5 4 4 3 2 2 2 2 1 1 1 1 1 1 1 1 1 2 2 1 2 2 2 2 3 3 3 4 5 5 6 7 7 8 8 9 10 11 11 12 11 12 12 12 12 12 13 13 13 13 12 13 14 16 17 18 19 19 18 18 16 15 15 15 16
16 16 16 15 14 13 12 12 12 12 11 10 9 9 9 9 9 7 6 6 5 5 4 3 2 2 2 2 2 2 1 1 1 1 1 1 1 1 1 1 2 2 3 3 3 4 4 4 4 5 6 7 8 8 8 9 10 10 11 11 11 12 11 12 13 13 13 13 12 12 13 13 13 14 15 17 19 20 21 19 18 18 17 16 18
16 17 17 16 15 14 13 12 13 12 11 10 10 9 9 9 9 8 7 6 6 6 5 3 3 3 3 3 2 1 1 1 1 1 1 1 1 1 2 2 3 3 3 4 4 4 4 4 4 5 6 7 8 8 9 9 10 10 11 11 11 11 11 12 12 13 13 12 12 12 12 13 13 13 13 15 17 19 21 22 21 20 19 18 19
15 17 18 17 16 15 14 13 13 12 10 10 10 9 9 10 9 8 7 7 6 6 5 3 3 3 4 4 3 2 2 1 1 1 1 2 2 2 3 3 4 4 4 4 5 5 5 6 6 6 7 7 8 9 9 10 10 11 11 11 12 12 12 12 12 12 12 12 12 12 12 12 13 13 13 14 15 16 19 22 22 22 21 21 20
16 16 16 16 14 14 13 13 12 12 11 10 11 10 10 10 9 8 7 7 6 6 4 4 4 5 5 5 4 3 2 2 1 1 2 3 3 4 4 4 4 4 5 5 5 6 6 6 7 6 7 8 8 9 10 10 10 11 11 12 12 13 12 12 12 12 12 13 13 13 13 13 13 13 14 14 15 15 17 20 23 23 22 23 22
15 15 15 15 14 13 12 12 12 12 11 11 11 11 10 9 9 8 7 7 6 6 5 5 5 5 5 5 4 4 3 3 3 2 3 3 4 4 4 4 5 5 5 6 6 6 6 6 7 7 7 8 8 9 10 11 11 11 12 12 12 13 13 13 13 12 12 13 13 13 12 12 13 13 13 14 15 15 15 18 21 23 23 23 23
15 15 14 14 13 13 12 12 11 11 11 11 11 11 10 10 10 9 8 8 7 7 7 7 7 6 6 6 5 4 4 4 4 4 4 4 5 5 5 5 6 6 6 6 6 7 7 7 8 8 8 8 9 9 10 10 11 12 13 14 14 14 14 13 13 13 12 13 13 13 12 12 12 13 13 14 14 15 16 16 18 21 23 24 25
16 15 14 14 13 13 13 12 11 10 11 10 9 9 9 9 9 8 8 8 8 7 8 7 7 7 7 7 6 6 6 5 5 5 5 5 5 6 6 6 6 6 6 6 7 7 8 8 9 9 9 9 9 9 9 10 11 13 14 14 14 14 14 14 13 12 12 12 11 11 11 11 12 12 13 14 14 14 16 17 17 18 19 22 24
16 15 14 14 13 13 13 13 11 10 9 9 8 7 7 7 8 8 8 8 6 6 7 6 6 6 6 7 7 7 7 6 6 6 6 6 6 6 6 6 6 5 5 5 6 6 6 7 7 8 9 9 9 8 8 10 11 12 12 12 13 14 14 13 13 12 11 10 10 10 10 11 12 13 13 14 14 15 16 17 18 18 18 19 21
16 15 14 13 13 12 12 12 12 11 10 9 8 7 7 7 9 9 8 6 5 5 5 5 5 6 6 7 7 7 7 7 7 6 6 7 7 7 6 6 7 6 6 6 6 6 5 6 7 9 9 10 11 9 8 10 10 10 12 11 11 10 9 11 10 9 9 9 10 10 12 13 13 14 14 14 15 15 16 16 17 18 18 19 19
15 15 14 14 14 12 12 12 12 11 10 9 8 8 8 8 9 8 7 6 5 5 6 6 7 7 7 7 7 7 6 6 7 7 7 7 8 8 8 8 8 8 9 8 8 8 7 8 9 10 11 12 12 9 7 9 10 12 12 9 8 8 6 7 7 7 9 11 12 12 12 13 14 15 15 15 16 15 15 16 16 18 19 20 20
14 14 14 15 14 13 13 13 12 10 9 9 8 8 8 8 8 7 6 6 6 7 7 8 7 8 8 8 8 8 7 7 7 7 6 7 7 8 8 8 8 9 10 9 10 10 10 10 10 11 12 13 13 12 9 10 11 11 9 8 7 8 6 6 8 10 11 11 11 12 13 13 14 15 15 16 17 16 17 17 17 18 19 20 21
13 13 14 15 15 14 13 11 11 9 8 8 7 8 8 8 8 8 7 7 7 7 7 7 7 7 7 8 9 9 8 8 8 8 7 7 8 8 8 9 9 10 11 11 11 11 11 11 11 12 13 13 14 15 13 11 11 11 9 9 8 6 6 9 12 12 10 10 12 13 14 15 15 15 16 17 17 17 18 18 18 17 18 20 20
13 13 16 17 16 14 12 12 11 9 8 7 6 6 6 6 6 6 6 7 7 6 6 7 7 7 7 7 8 11 11 10 10 10 9 9 10 9 9 9 9 11 12 11 11 11 12 12 12 12 13 13 14 15 15 13 13 12 12 10 9 9 10 11 11 9 10 13 14 14 14 14 15 16 17 18 18 18 18 19 19 18 19 19 21
15 15 17 17 15 13 11 11 11 9 8 7 6 5 4 3 2 2 2 3 6 6 5 6 6 6 6 5 6 9 11 11 10 10 11 11 11 11 11 11 11 11 12 12 13 13 12 11 12 12 12 12 13 14 15 15 14 13 12 12 13 14 14 12 10 9 10 12 14 15 16 15 14 15 17 18 19 19 19 19 18 19 19 19 20
15 15 16 14 13 12 11 11 11 9 8 7 6 5 4 4 3 3 3 4 6 6 6 6 5 5 5 5 6 7 10 11 11 11 11 11 11 12 13 12 12 12 12 12 13 12 11 11 12 12 11 11 12 14 15 14 14 14 14 14 15 15 15 15 15 13 10 9 11 15 16 15 15 16 17 18 19 20 20 20 19 19 19 19 20
14 14 14 14 13 12 12 12 10 8 8 7 7 6 5 5 4 4 5 5 5 5 5 5 4 5 5 5 6 8 10 11 11 12 12 12 12 12 12 11 10 10 9 9 10 10 10 10 11 11 11 11 11 12 14 14 14 15 15 16 16 15 16 16 16 14 12 11 10 11 13 15 16 17 18 18 18 19 20 21 21 20 19 20 20
13 12 13 14 13 12 11 11 10 9 9 8 8 8 7 7 6 6 6 6 5 4 5 4 4 4 5 5 7 9 9 9 10 11 11 12 12 12 11 10 9 9 9 9 9 9 10 10 10 10 11 11 11 11 13 13 14 14 15 16 16 16 15 14 14 14 14 13 11 11 15 16 14 16 18 18 18 18 19 20 21 21 20 20 21
12 13 13 13 12 11 11 11 11 10 9 9 9 8 8 8 8 7 7 6 5 4 4 4 3 3 5 6 7 8 9 9 10 11 12 13 12 12 11 11 11 11 10 10 10 10 10 10 10 10 10 11 11 11 12 12 13 13 14 14 15 15 15 14 15 17 15 13 12 11 15 19 18 18 19 18 19 19 20 21 21 20 21 21 21
Wind_Direction
143 141 138 150 144 138 133 127 121 114 136 139 127 120 120 121 121 120 121 123 123 121 119 115 112 111 109 109 109 109 109 109 110 107 103 100 100 98 97 97 98 98 101 104 103 104 103 102 99 97 96 93 91 90 90 94 97 98 97 91 87 88 87 89 93 93 92 91 90 90 87 86 84 82 79 72 79 88 79 73 70 66 67 64 61
141 139 136 145 142 138 132 128 120 114 133 138 132 124 120 118 121 120 120 122 120 118 117 114 113 112 112 113 112 111 109 108 106 102 100 98 97 97 97 99 102 101 102 103 103 103 103 102 98 96 96 92 90 86 84 86 94 99 101 98 93 91 88 92 97 96 96 96 95 91 88 87 84 81 77 70 74 82 77 77 79 71 67 67 64
138 136 134 142 141 136 132 127 119 116 125 134 134 128 123 118 119 118 120 123 120 119 119 119 117 116 115 116 113 110 108 107 104 100 99 97 97 97 99 102 103 102 103 104 103 103 103 102 97 95 93 90 86 81 76 75 81 89 92 96 96 95 93 101 105 102 102 100 94 88 87 87 85 84 80 73 69 72 74 74 73 70 70 69 63
136 134 133 140 138 135 132 127 120 118 121 126 128 125 123 119 118 116 118 122 120 119 119 119 119 117 115 113 111 108 106 105 103 101 98 96 97 97 99 100 101 102 104 104 103 105 105 102 98 94 90 86 81 78 73 69 75 84 89 93 97 99 96 106 114 112 108 100 89 88 90 87 84 83 79 75 72 76 77 73 71 69 70 70 67
135 134 134 135 134 135 132 128 122 122 124 124 122 119 118 115 115 114 114 114 114 114 115 116 116 115 113 112 110 106 104 103 102 100 98 98 97 96 97 98 100 102 103 103 103 104 103 101 99 94 90 84 81 80 76 71 72 82 93 98 99 101 101 109 114 109 107 103 95 93 94 93 87 78 79 82 79 83 79 71 72 70 68 59 56
134 133 133 133 132 136 134 130 126 125 127 125 122 118 117 116 115 115 115 115 115 116 117 118 116 114 113 112 108 106 104 102 101 98 97 95 94 92 94 97 99 100 99 100 101 101 101 100 97 95 92 87 87 82 77 73 70 76 90 103 104 104 112 112 109 103 96 93 92 94 94 94 90 82 84 89 80 78 75 69 68 65 66 54 45
133 132 133 133 132 138 136 131 130 129 127 127 125 122 120 119 119 119 119 119 120 120 121 119 117 116 113 110 108 106 104 103 100 98 94 92 91 90 91 96 100 102 100 98 98 99 99 98 97 97 94 92 91 81 74 71 70 77 85 100 107 108 118 113 102 98 88 81 87 93 92 92 92 90 83 79 76 78 76 71 69 65 68 68 56
132 133 133 133 134 140 136 133 134 130 128 130 129 124 123 123 123 123 123 125 125 124 122 119 118 116 113 110 108 105 103 102 99 97 95 92 91 89 88 92 98 101 102 103 101 99 98 97 99 101 99 95 86 75 71 66 66 78 87 96 105 113 123 117 98 90 85 84 94 91 91 93 94 95 87 81 78 77 70 56 53 60 66 66 62
133 133 134 132 137 141 136 137 135 130 131 132 130 127 127 127 125 125 125 126 126 124 123 120 117 115 113 109 108 106 102 98 96 94 92 91 90 91 91 93 98 101 105 106 103 103 102 99 101 104 99 89 76 67 63 64 65 77 92 93 98 113 128 125 99 83 84 94 95 89 94 96 94 94 96 94 86 82 78 62 51 56 67 71 73
132 134 133 131 140 142 137 139 134 129 130 131 131 129 129 128 126 126 126 127 127 126 123 119 117 116 113 110 108 104 100 95 93 89 88 88 87 91 93 99 105 105 106 106 109 111 105 100 102 104 95 85 73 64 61 64 67 82 97 93 94 100 122 119 93 82 91 95 86 86 104 102 92 94 101 95 93 102 102 106 97 74 68 71 75
133 134 129 133 142 141 137 136 132 129 128 129 131 131 129 127 127 126 128 130 129 127 123 119 118 116 113 109 104 100 96 94 91 88 85 82 82 84 84 92 108 118 119 120 130 121 109 111 113 110 100 90 75 64 63 67 74 88 96 95 94 93 111 106 85 91 101 91 90 96 104 96 91 97 97 88 89 91 78 78 81 61 59 65 61
136 134 128 135 141 137 136 133 130 128 127 130 131 132 129 128 129 129 131 131 128 127 123 120 118 116 111 106 102 99 95 92 90 89 84 81 81 79 77 81 105 138 144 142 148 131 121 128 123 115 106 92 78 64 61 70 81 89 93 96 94 95 109 98 82 112 101 91 101 106 100 88 96 103 95 87 83 71 63 63 62 52 55 58 52
136 132 129 134 137 136 136 131 128 128 126 129 131 132 131 131 132 131 133 132 128 126 123 120 118 115 111 107 103 97 91 87 85 86 85 85 84 81 75 73 87 128 150 155 153 144 142 143 134 123 112 96 78 63 60 72 84 87 89 93 90 98 107 95 91 112 96 99 103 106 101 96 105 109 109 98 90 76 61 59 53 42 43 49 36
135 131 130 134 135 135 134 129 127 126 124 126 129 134 136 136 134 132 133 133 129 126 123 120 118 115 112 108 101 94 87 83 82 84 84 86 86 82 74 67 69 85 124 156 159 164 165 156 146 133 121 103 81 64 61 68 83 88 85 87 84 97 104 91 92 105 94 101 103 108 103 111 122 114 117 106 100 89 62 42 35 28 21 15 11
135 134 133 135 136 134 131 127 124 122 124 127 133 139 141 139 136 134 133 133 129 125 122 120 120 116 112 105 96 89 82 78 80 86 86 87 88 85 76 63 58 66 88 125 148 165 170 158 147 139 130 109 86 69 64 67 80 91 86 84 78 88 108 96 81 100 98 102 102 109 105 123 150 117 115 124 118 90 81 70 48 24 1 357 15
137 136 134 136 137 133 129 127 127 126 129 133 137 142 142 142 140 137 135 133 128 125 122 120 120 115 109 101 92 85 82 80 79 89 92 89 89 87 78 66 57 61 76 99 129 149 155 151 145 141 134 113 92 76 70 74 83 97 94 87 78 82 108 107 79 97 94 103 101 105 111 122 151 132 137 157 135 120 136 130 61 358 357 5 27
137 136 133 136 136 135 132 131 132 130 133 135 136 139 142 145 143 141 138 136 132 128 124 119 116 112 106 98 93 88 86 83 78 88 94 91 91 89 82 73 62 61 74 95 117 143 150 148 145 141 133 114 95 83 77 83 95 110 110 100 86 81 102 104 84 89 82 100 103 100 118 132 147 139 144 156 158 164 165 166 199 293 11 63 42
136 135 133 134 136 136 134 134 134 130 128 128 130 134 140 144 144 144 141 137 134 128 122 117 113 108 103 98 96 93 90 85 81 87 94 96 94 95 95 85 69 60 71 95 114 138 149 147 143 139 129 114 95 85 82 92 106 121 128 118 101 87 96 100 90 90 89 104 104 98 128 208 164 144 161 170 179 186 185 220 209 244 65 135 203
133 131 132 133 136 135 133 135 135 136 129 123 125 130 138 142 143 144 140 132 127 123 117 113 111 106 101 102 101 95 91 83 79 80 86 96 94 92 97 94 86 72 69 93 116 134 148 149 144 140 130 116 96 84 85 95 110 124 138 136 127 99 84 82 91 91 89 89 95 109 186 237 157 149 194 187 191 199 206 231 216 215 190 204 222
127 127 130 131 133 131 131 133 132 134 127 124 125 128 138 142 144 145 141 133 126 119 112 113 114 110 111 109 100 92 92 77 72 68 67 88 100 97 92 91 89 80 74 86 113 136 150 153 151 149 138 122 102 88 88 95 109 116 135 155 139 105 71 45 70 54 71 61 83 122 294 241 149 161 205 205 217 216 222 235 226 237 222 241 250
125 125 128 129 128 124 125 128 129 130 125 125 127 128 131 132 141 145 143 139 130 122 119 126 125 123 117 100 93 97 105 96 89 86 72 78 98 102 93 88 84 77 75 76 91 129 153 162 164 159 150 137 108 87 85 89 104 113 128 134 108 116 179 319 1 351 31 36 76 319 314 265 165 178 199 227 244 226 231 243 243 253 242 259 270
129 128 127 127 124 123 128 133 135 134 132 130 130 131 129 127 133 139 141 142 141 139 134 127 122 123 105 92 103 109 112 109 106 111 115 115 104 106 108 97 84 70 72 72 70 84 132 170 179 173 165 152 120 93 92 88 98 113 118 110 114 196 231 227 278 313 305 355 76 297 323 322 198 196 205 240 246 230 238 249 255 262 250 253 258
136 134 129 128 128 132 136 138 139 137 136 132 131 133 133 132 133 139 145 145 146 145 136 126 120 124 119 118 120 116 114 108 104 106 121 128 109 99 101 94 79 59 67 69 61 58 64 124 185 193 185 172 156 174 182 135 114 131 131 115 206 221 217 215 251 276 272 339 260 283 315 327 223 200 212 241 239 240 250 251 256 265 257 258 258
140 135 130 131 136 140 137 138 139 138 137 132 132 133 134 137 138 147 147 141 143 140 135 133 131 132 132 133 122 115 111 105 104 95 106 117 99 76 67 63 56 32 47 60 44 38 42 46 48 194 196 206 210 211 204 191 190 195 208 232 234 229 231 236 248 257 262 288 249 275 305 305 252 209 218 234 239 244 256 259 258 265 258 253 250
137 137 135 138 140 141 137 137 137 137 137 133 133 133 135 138 140 147 138 131 138 140 138 139 142 140 136 132 119 114 106 101 105 97 112 128 123 95 75 72 71 42 50 73 322 0 22 26 24 148 203 220 222 223 225 224 226 227 229 235 240 243 247 248 254 260 265 257 250 271 294 288 264 235 225 226 238 239 252 259 250 258 255 248 245
141 143 141 142 142 140 138 138 136 135 133 130 132 133 134 134 129 131 129 127 133 136 139 142 144 143 136 130 126 120 106 98 99 102 117 117 114 110 107 106 93 64 56 53 302 321 277 253 309 229 220 225 226 229 231 235 240 243 244 244 245 249 254 257 258 258 262 252 251 269 278 271 262 249 230 220 232 236 246 255 249 255 250 253 256
145 143 143 143 142 140 138 136 133 132 129 128 131 132 133 134 128 127 129 129 131 133 134 138 139 141 140 135 137 91 78 79 91 109 104 88 86 91 104 95 63 43 36 11 355 306 269 262 259 255 256 237 228 231 233 239 245 249 251 253 254 256 261 268 270 263 263 259 255 268 276 267 257 251 239 221 223 233 242 247 248 252 247 258 264
143 142 143 142 141 139 137 134 132 131 128 129 130 131 135 137 136 134 131 127 129 133 138 146 146 155 155 149 180 1 6 345 339 301 8 46 46 28 322 338 355 330 327 322 315 303 286 268 260 257 258 252 243 241 241 243 247 251 253 255 257 259 258 262 269 267 268 269 261 268 278 275 262 252 246 230 219 227 237 242 245 244 247 261 261
143 143 142 141 141 138 137 134 132 130 129 130 129 133 138 138 138 136 132 129 131 135 143 150 152 165 167 161 189 247 307 342 354 323 350 0 350 336 325 332 328 316 312 316 308 296 291 281 276 268 263 261 256 253 253 254 252 253 254 254 254 258 259 257 263 265 263 264 261 265 273 277 268 254 249 239 225 221 229 240 244 240 243 256 250
144 143 142 141 141 139 137 134 133 132 132 133 133 138 140 138 136 130 126 125 125 126 130 141 151 160 154 139 162 202 247 322 339 10 20 7 0 355 349 345 337 330 321 323 317 300 293 285 286 284 279 273 267 264 264 263 260 257 256 255 256 257 258 258 261 263 260 259 260 262 270 276 272 258 249 244 236 226 225 234 242 241 238 243 243
144 143 143 142 143 140 136 135 135 135 135 137 139 142 138 133 128 123 121 121 121 122 124 132 129 117 107 101 95 99 147 277 340 38 28 15 28 19 12 8 352 342 335 330 321 313 306 297 296 292 288 284 279 273 269 268 267 265 262 261 262 261 260 262 262 260 260 261 260 258 264 271 272 263 251 245 242 235 225 227 236 239 239 239 240
146 145 144 143 142 136 132 133 134 136 138 139 139 137 131 126 123 121 122 120 120 121 119 117 107 96 91 83 88 86 74 39 43 63 50 26 30 26 24 19 2 340 332 329 323 320 312 305 306 303 297 292 285 277 274 272 270 271 271 271 271 268 267 266 264 262 261 262 261 258 256 261 266 265 257 247 243 240 231 223 225 233 239 237 238
147 147 144 141 139 134 133 133 133 135 135 136 135 131 127 124 122 121 120 116 114 110 104 100 97 89 80 68 65 54 36 43 53 63 62 43 30 32 28 8 350 328 324 325 322 319 311 310 315 315 310 302 292 284 280 276 275 275 275 276 276 274 274 272 270 268 266 265 263 261 257 256 258 260 260 254 244 241 237 227 219 224 234 236 236
146 147 143 141 140 140 142 138 136 135 132 133 131 128 127 122 121 121 117 114 110 102 95 89 80 71 69 55 39 39 27 29 36 48 51 30 24 31 0 334 326 315 321 325 321 316 309 311 314 313 310 305 297 292 289 283 281 281 281 281 280 280 279 277 275 273 270 269 265 262 261 260 256 253 254 256 251 243 238 232 224 219 224 232 234
144 145 145 145 145 145 145 140 139 134 130 131 130 128 124 119 117 115 110 106 102 94 85 77 68 55 49 35 23 26 25 23 25 36 30 357 358 358 341 331 321 312 313 315 314 310 308 309 311 309 305 302 296 294 293 289 287 286 287 287 283 283 281 280 279 276 274 272 267 262 261 262 260 255 249 251 253 249 241 235 231 224 220 225 230
144 146 147 146 145 145 142 139 138 133 130 130 127 124 118 113 109 104 97 94 90 83 75 67 55 44 44 37 26 36 31 14 13 12 345 328 336 338 338 328 320 316 311 311 307 303 307 307 305 304 300 296 291 290 289 286 287 285 286 287 286 285 283 282 280 279 278 274 269 265 263 262 261 258 253 249 251 252 247 239 234 231 227 226 225
143 147 145 143 143 143 139 137 135 130 128 129 125 120 114 110 106 100 94 88 82 77 72 64 56 45 47 46 39 47 41 22 13 339 319 321 324 323 327 324 319 317 309 312 308 301 307 305 301 300 295 293 288 286 287 285 286 287 287 287 287 287 283 281 278 277 277 274 270 267 265 264 262 259 256 252 250 249 250 246 238 234 234 232 227
143 143 137 135 140 141 136 133 132 129 129 130 126 120 115 110 106 102 94 86 78 72 69 62 55 45 45 46 38 37 33 26 15 354 344 334 330 327 327 327 320 314 309 311 310 304 306 304 303 304 301 300 297 293 294 293 291 291 289 286 285 284 281 277 274 271 271 272 272 270 269 265 263 262 259 255 252 247 246 247 242 237 237 236 231
140 133 131 133 136 136 134 132 131 129 130 130 125 120 118 113 109 104 94 83 76 72 67 58 54 49 46 45 41 39 33 29 20 5 359 351 344 338 335 334 326 320 319 316 317 317 315 312 312 315 314 307 301 299 299 298 296 292 287 284 280 276 274 271 269 268 268 270 272 272 270 267 263 262 262 260 256 249 243 241 238 234 236 238 235
132 128 134 137 135 133 130 128 125 124 125 124 122 121 119 113 106 98 86 78 73 68 63 57 57 57 52 49 47 47 41 35 26 15 11 4 354 350 346 344 338 331 327 325 327 328 323 320 319 318 316 309 301 297 297 297 293 288 282 281 279 271 267 266 264 264 267 268 269 270 268 266 265 262 262 262 258 253 246 242 238 232 233 238 238
126 126 131 133 130 126 121 116 113 114 114 111 112 110 106 107 99 89 86 80 71 69 68 67 71 67 59 56 54 52 47 40 32 25 20 12 3 2 359 351 348 341 336 335 334 334 327 322 317 310 308 306 302 297 296 295 290 289 288 288 286 275 262 258 260 265 268 265 264 269 273 273 273 269 265 261 257 254 249 244 241 237 234 234 236
114 116 117 116 111 107 107 105 103 102 96 91 93 91 90 97 96 95 99 93 79 83 89 88 85 76 66 62 60 56 48 40 33 26 22 18 13 8 1 356 355 351 347 343 336 334 330 325 318 314 312 307 304 304 303 300 298 305 308 303 298 287 259 244 251 266 269 266 267 273 278 279 277 275 272 264 257 253 252 248 243 240 238 236 233
103 107 106 103 98 96 98 95 93 90 81 75 77 83 87 92 95 104 116 111 99 102 103 97 90 82 72 63 58 53 47 41 32 27 23 19 16 9 1 357 356 358 359 353 345 342 336 332 328 325 322 313 308 310 307 305 310 314 309 301 305 310 285 249 249 265 268 271 275 276 277 277 276 278 276 268 262 258 254 251 247 243 240 238 235
95 101 104 102 98 97 96 93 90 85 78 75 80 87 91 90 91 103 113 114 113 111 103 93 88 83 74 65 57 49 47 46 41 37 33 29 25 20 16 11 6 9 12 8 4 1 352 345 340 335 329 321 316 317 314 311 313 313 307 303 304 300 295 306 308 294 283 278 277 277 278 278 276 277 276 271 267 263 258 253 247 245 243 240 237
94 97 102 102 99 95 93 93 89 85 85 85 91 99 103 105 109 117 121 124 125 121 111 98 91 85 76 68 60 54 54 54 51 49 45 45 42 34 31 28 21 17 15 12 10 6 359 353 349 341 332 324 320 317 311 308 306 304 299 299 301 294 301 322 318 303 292 287 283 281 280 280 280 278 276 274 272 268 262 257 250 244 243 243 240
97 97 104 105 103 98 97 98 92 89 93 90 88 97 111 123 135 142 146 148 135 116 107 103 95 85 79 74 64 60 61 58 56 55 53 52 49 43 38 34 27 19 14 10 6 0 356 354 351 344 333 326 322 314 307 307 308 301 292 287 287 289 297 311 312 302 298 295 290 285 282 282 282 280 278 276 275 272 266 261 255 247 242 240 239
104 107 108 107 104 101 104 100 90 88 90 88 86 88 94 106 124 125 118 137 122 105 98 96 91 82 78 74 67 64 60 53 52 53 52 51 47 43 37 29 21 12 6 4 359 355 350 343 341 339 329 320 317 310 305 308 307 302 300 297 291 289 290 293 294 298 302 298 295 291 288 286 283 281 280 279 277 274 268 263 258 250 245 239 234
110 113 109 107 106 108 110 97 87 87 85 84 91 91 88 88 92 86 77 91 105 107 99 87 82 77 73 70 72 71 60 52 49 48 47 44 39 35 29 19 10 4 2 359 355 351 344 335 334 333 327 320 316 309 305 309 308 306 309 305 298 295 292 288 288 292 297 298 300 296 295 295 289 283 280 279 278 274 270 266 260 252 247 243 236
112 112 108 108 105 103 102 93 87 87 84 89 94 92 93 94 98 106 106 104 103 102 90 79 75 72 69 73 79 74 61 51 45 43 42 38 35 34 28 21 15 12 7 358 352 347 341 336 336 336 334 330 323 316 316 320 317 313 313 308 304 302 296 292 291 291 293 297 301 301 302 301 294 289 285 281 279 276 272 268 263 257 250 245 241
113 106 101 102 100 96 95 93 90 87 87 92 92 91 94 97 98 101 103 101 101 95 83 76 69 64 68 75 79 70 56 46 41 44 47 44 43 45 42 36 32 26 15 3 356 350 345 343 340 338 339 335 330 327 326 324 319 316 315 311 307 305 302 300 297 297 298 297 298 300 301 301 298 296 293 287 284 279 275 270 263 258 253 248 243
112 103 98 100 102 101 100 97 92 89 89 88 86 88 90 93 96 97 96 91 89 87 76 64 55 64 78 82 82 71 57 51 46 49 55 53 49 48 46 38 31 26 17 8 0 355 354 354 351 347 346 343 339 335 330 326 324 320 318 315 312 312 313 311 308 309 307 302 301 300 300 302 303 301 297 293 291 283 277 273 267 259 254 251 247